Location: Unspecified
(33.6682°S, 0.0000°E)
Time: 05:55:47
(UTC+00:00)

S-56A Canister/Altair - Pass Details

Date: 04 July 2019
Orbit: 632 x 2500 km, 38.9° (Epoch: 14 July)

Event Time Altitude Azimuth Distance (km) Brightness Sun altitude
Exits shadow 06:30:40 - 254° (WSW) 3,784 10.4 -7.3°
Reaches altitude 10° 06:31:12 10° 255° (WSW) 3,644 10.3 -7.2°
Maximum altitude 06:40:35 51° 327° (NNW) 2,330 9.9 -5.5°
Drops below altitude 10° 06:53:42 10° 37° (NE) 4,990 12.9 -3.0°
Sets 06:58:04 0° 41° (NE) 6,108 13.6 -2.2°
